Regional Weather Roundup
Issued by NWS Goodland, KS

Home | Current Version | Previous Version | Text Only | Print | Product List | Glossary On
Versions: 1 2 3 4 5 6 7 8 9 10 11 12 13 14 15 16 17 18 19 20 21 22 23 24 25 26 27 28 29 30 31 32 33 34 35 36 37 38 39 40 41 42 43 44 45 46 47 48 49 50
000
ASUS43 KGLD 201108
RWRGLD

GOODLAND FORECAST AREA HOURLY WEATHER ROUNDUP
NATIONAL WEATHER SERVICE GOODLAND KS
500 AM MDT FRI OCT 20 2017

...OFFICIAL OBSERVATIONS...

CITY           SKY/WX    TMP DP  RH WIND       PRES   REMARKS
GOODLAND KS    CLOUDY    53  48  83 S17       29.79F
HILL CITY KS   FAIR      58  48  69 S13G21    29.86F
IMPERIAL NEB   PTCLDY    55  46  71 S17       29.77S
MCCOOK NEB     MOCLDY    57  47  69 SW6       29.80F
AKRON CO       MOCLDY    49  39  68 S10       29.76F
BURLINGTON CO  PTCLDY    50  48  93 S13       29.79F
LIMON CO       CLOUDY    31  31 100 N5        29.81F FOG
$$

...UNOFFICIAL OBSERVATIONS...

CITY           SKY/WX    TMP DP  RH WIND       PRES   REMARKS
COLBY KS       CLOUDY    57  50  77 S20G25    29.82S
NORTON KS      CLEAR     55  43  62 S13G20    29.82F
SHARON SPRINGS   N/A     54  49  83 S14G21      N/A
TRENTON NEB      N/A     55  32  41 SW8         N/A
YUMA CO        FAIR      41  37  87 SW6       29.76F
$$




USA.gov is the U.S. government's official web portal to all federal, state and local government web resources and services.